JAL50 OMAA-RJTT

Flight info

Callsign JAL50
Flight time N/A
Altitude 35000
Route KANIP N318 GEVED N881 RASKI L639 BPL A791 CEA B465 CTG A599 LINSO/K0937S1065 A599 SGM A581 WHA R343 PK W116 JTN G327 LAMEN/N0498F350 A593 SADLI Y590 BEDAR Y591 FUE Y23 KASTE Y81 ISEBI Y43 MENUR Y21 AKSEL
Aircraft A35K/H-SDE2E3GHIJ3J4J5LM1ORWXY/LB1D1

Departure

Time N/A
Airport Zayed International Airport (OMAA)

Arrival

Time 2026-05-04 11:42
Airport Tokyo Haneda International Airport (RJTT)
Time Latitude Longitude Altitude Speed Heading
2026-05-04 11:12 33.79368 137.62053 34956 ft 603 kts 82°
2026-05-04 11:12 33.80259 137.66984 34952 ft 603 kts 82°
2026-05-04 11:12 33.82034 137.76840 34947 ft 603 kts 82°
2026-05-04 11:13 33.83805 137.86698 34946 ft 603 kts 82°
2026-05-04 11:13 33.85565 137.96553 34944 ft 602 kts 82°
2026-05-04 11:14 33.87323 138.06402 34931 ft 602 kts 82°
2026-05-04 11:16 33.98249 138.44227 32784 ft 605 kts 63°
2026-05-04 11:16 34.00273 138.48677 31934 ft 605 kts 63°
2026-05-04 11:16 34.02293 138.53127 31059 ft 605 kts 63°
2026-05-04 11:17 34.04303 138.57592 30183 ft 606 kts 63°
2026-05-04 11:17 34.06304 138.62075 29183 ft 608 kts 63°
2026-05-04 11:19 34.19734 138.92581 24708 ft 571 kts 62°
2026-05-04 11:19 34.21581 138.96801 24105 ft 567 kts 62°
2026-05-04 11:19 34.23414 139.00993 23514 ft 563 kts 62°
2026-05-04 11:19 34.25235 139.05161 22832 ft 559 kts 62°
2026-05-04 11:20 34.27043 139.09301 22222 ft 554 kts 62°
2026-05-04 11:20 34.28724 139.13465 21586 ft 549 kts 66°
2026-05-04 11:20 34.30261 139.17662 21029 ft 542 kts 68°
2026-05-04 11:20 34.31724 139.21829 20449 ft 537 kts 68°
2026-05-04 11:22 34.41402 139.50150 16205 ft 502 kts 68°
2026-05-04 11:22 34.42718 139.54004 15623 ft 496 kts 68°
2026-05-04 11:23 34.44036 139.57866 15019 ft 491 kts 68°
2026-05-04 11:23 34.45333 139.61669 14423 ft 486 kts 68°
2026-05-04 11:24 34.56764 139.77680 13249 ft 378 kts 24°
2026-05-04 11:25 34.58970 139.79306 13116 ft 365 kts 23°
2026-05-04 11:25 34.61102 139.80876 12956 ft 352 kts 23°
2026-05-04 11:25 34.63174 139.82399 12689 ft 345 kts 22°
2026-05-04 11:26 34.67228 139.85333 12108 ft 331 kts 18°
2026-05-04 11:27 34.82048 139.89441 10826 ft 305 kts
2026-05-04 11:28 34.84118 139.89973 10664 ft 303 kts
2026-05-04 11:28 34.86174 139.90503 10484 ft 301 kts
2026-05-04 11:28 34.88217 139.91030 10320 ft 300 kts
2026-05-04 11:28 34.90256 139.91556 10150 ft 298 kts
2026-05-04 11:29 34.92280 139.92079 9974 ft 296 kts
2026-05-04 11:29 34.94292 139.92600 9800 ft 294 kts
2026-05-04 11:29 34.96280 139.93115 9650 ft 290 kts
2026-05-04 11:29 34.98238 139.93626 9460 ft 285 kts
2026-05-04 11:31 35.11539 139.97069 8338 ft 272 kts
2026-05-04 11:33 35.24080 139.98296 6125 ft 244 kts 357°
2026-05-04 11:33 35.25773 139.98350 5700 ft 243 kts 358°
2026-05-04 11:33 35.27451 139.98367 5379 ft 236 kts 355°
2026-05-04 11:34 35.29009 139.98085 5245 ft 218 kts 337°
2026-05-04 11:34 35.30322 139.97302 5158 ft 203 kts 327°
2026-05-04 11:34 35.31507 139.96450 5080 ft 196 kts 327°
2026-05-04 11:34 35.32683 139.95609 4969 ft 194 kts 327°
2026-05-04 11:35 35.33824 139.94799 4873 ft 186 kts 328°
2026-05-04 11:35 35.34897 139.94044 4795 ft 169 kts 328°
2026-05-04 11:35 35.35891 139.93345 4540 ft 161 kts 328°
2026-05-04 11:35 35.36846 139.92672 4167 ft 156 kts 328°
2026-05-04 11:36 35.37759 139.92028 3986 ft 145 kts 328°
2026-05-04 11:36 35.38597 139.91435 3765 ft 135 kts 328°
2026-05-04 11:36 35.39401 139.90864 3480 ft 131 kts 327°
2026-05-04 11:36 35.40165 139.90320 3279 ft 123 kts 327°
2026-05-04 11:37 35.40899 139.89798 3124 ft 121 kts 327°
2026-05-04 11:37 35.41633 139.89275 2880 ft 123 kts 327°
2026-05-04 11:37 35.42376 139.88747 2679 ft 124 kts 327°
2026-05-04 11:37 35.43122 139.88216 2478 ft 124 kts 327°
2026-05-04 11:38 35.43869 139.87688 2315 ft 124 kts 327°
2026-05-04 11:38 35.44615 139.87159 2151 ft 124 kts 327°
2026-05-04 11:38 35.45366 139.86625 1992 ft 125 kts 327°
2026-05-04 11:38 35.46118 139.86091 1818 ft 125 kts 327°
2026-05-04 11:39 35.46869 139.85558 1650 ft 124 kts 328°
2026-05-04 11:39 35.47621 139.85024 1483 ft 125 kts 327°
2026-05-04 11:40 35.52075 139.81842 510 ft 125 kts 330°
2026-05-04 11:41 35.52815 139.81319 368 ft 122 kts 332°
2026-05-04 11:41 35.53538 139.80802 212 ft 119 kts 332°
2026-05-04 11:41 35.54240 139.80318 46 ft 110 kts 332°
2026-05-04 11:41 35.54846 139.79891 30 ft 88 kts 330°
2026-05-04 11:42 35.55302 139.79569 30 ft 64 kts 330°
2026-05-04 11:42 35.55627 139.79338 30 ft 46 kts 327°
2026-05-04 11:42 35.55782 139.79122 29 ft 33 kts 301°
2026-05-04 11:42 35.55829 139.79026 29 ft 0 kts 300°
2026-05-04 11:43 35.55836 139.79010 29 ft 4 kts 300°
2026-05-04 11:43 35.55866 139.78948 29 ft 11 kts 301°
2026-05-04 11:43 35.55927 139.78870 29 ft 14 kts 327°
2026-05-04 11:43 35.56020 139.78805 29 ft 17 kts 330°
2026-05-04 11:44 35.56098 139.78749 29 ft 14 kts 330°
2026-05-04 11:44 35.56191 139.78683 29 ft 17 kts 330°
2026-05-04 11:44 35.56281 139.78619 29 ft 12 kts 331°
2026-05-04 11:44 35.56347 139.78573 29 ft 14 kts 329°
2026-05-04 11:45 35.56441 139.78505 29 ft 17 kts 325°
2026-05-04 11:45 35.56443 139.78378 29 ft 17 kts 243°
2026-05-04 11:45 35.56378 139.78236 29 ft 21 kts 240°
2026-05-04 11:45 35.56299 139.78071 29 ft 24 kts 239°
2026-05-04 11:46 35.56238 139.77939 29 ft 16 kts 240°
2026-05-04 11:46 35.56175 139.77809 29 ft 19 kts 239°
2026-05-04 11:46 35.56117 139.77689 29 ft 13 kts 239°
2026-05-04 11:46 35.56066 139.77581 29 ft 17 kts 240°
2026-05-04 11:47 35.56001 139.77444 29 ft 20 kts 240°
2026-05-04 11:47 35.55934 139.77303 29 ft 19 kts 239°
2026-05-04 11:47 35.55826 139.77189 28 ft 22 kts 215°
2026-05-04 11:47 35.55704 139.77083 30 ft 19 kts 215°
2026-05-04 11:48 35.55579 139.76985 29 ft 23 kts 197°
2026-05-04 11:48 35.55433 139.77052 29 ft 20 kts 150°
2026-05-04 11:48 35.55306 139.77143 29 ft 23 kts 150°
2026-05-04 11:48 35.55184 139.77230 29 ft 20 kts 149°
2026-05-04 11:49 35.55075 139.77307 29 ft 18 kts 150°
2026-05-04 11:49 35.54962 139.77385 29 ft 11 kts 150°
2026-05-04 11:49 35.54906 139.77421 29 ft 8 kts 164°
2026-05-04 11:49 35.54873 139.77391 29 ft 12 kts 236°
2026-05-04 11:50 35.54828 139.77298 29 ft 13 kts 240°
2026-05-04 11:50 35.54777 139.77189 29 ft 13 kts 239°
2026-05-04 11:50 35.54738 139.77102 29 ft 11 kts 257°
2026-05-04 11:50 35.54741 139.77066 29 ft 2 kts 280°
2026-05-04 11:51 35.54744 139.77029 29 ft 6 kts 268°
2026-05-04 11:51 35.54727 139.76979 29 ft 4 kts 241°
2026-05-04 11:51 35.54719 139.76960 29 ft 2 kts 240°
2026-05-04 11:51 35.54715 139.76952 29 ft 1 kts 240°
2026-05-04 11:52 35.54712 139.76946 29 ft 1 kts 240°
2026-05-04 11:52 35.54710 139.76942 29 ft 0 kts 240°